Date,TemperatureHighF,TemperatureAvgF,TemperatureLowF,DewpointHighF,DewpointAvgF,DewpointLowF,HumidityHigh,HumidityAvg,HumidityLow,PressureMaxIn,PressureMinIn,WindSpeedMaxMPH,WindSpeedAvgMPH,GustSpeedMaxMPH,PrecipitationSumIn
2012-12-1,60.0,38.7,27.3,47.0,34.5,26.0,95,86,57,30.40,30.31,3,0,7,0.00
2012-12-2,66.6,47.9,29.5,53.0,42.6,28.0,97,83,61,30.38,30.19,11,3,20,0.00
2012-12-3,71.4,59.1,51.9,57.0,53.3,50.0,95,82,60,30.25,30.18,11,2,12,0.00
2012-12-4,74.2,60.6,48.1,58.0,52.3,47.0,97,76,47,30.26,30.09,17,3,21,0.01
2012-12-5,63.1,54.1,33.7,55.0,49.1,32.0,95,83,68,30.24,30.04,8,2,14,0.03
2012-12-6,47.8,36.9,25.8,33.0,29.8,24.0,94,77,52,30.36,30.24,7,0,10,0.00
2012-12-7,50.6,43.8,33.8,47.0,41.3,32.0,96,90,76,30.24,29.99,0,0,5,0.25
2012-12-8,64.5,53.2,47.9,57.0,50.8,47.0,100,92,76,30.01,29.91,10,2,10,0.01
2012-12-9,58.8,53.5,45.8,56.0,52.1,45.0,97,94,88,30.12,29.97,5,0,5,0.02
2012-12-10,71.2,62.5,51.3,65.0,59.3,50.0,98,89,69,29.97,29.62,15,4,25,0.01
2012-12-11,62.5,52.3,44.3,58.0,44.7,32.0,93,75,63,30.19,29.65,7,2,14,0.00
2012-12-12,45.7,42.4,40.4,33.0,30.9,30.0,70,64,55,30.38,30.18,11,3,15,0.00
2012-12-13,51.4,39.2,26.0,37.0,31.1,24.0,93,74,50,30.40,30.34,12,2,13,0.00
2012-12-14,56.3,33.5,20.0,35.0,26.8,18.0,94,80,42,30.36,30.22,1,0,3,0.00
2012-12-15,51.9,37.7,25.8,39.0,31.3,24.0,95,80,48,30.28,30.09,2,0,4,0.00
2012-12-16,56.0,48.9,42.5,54.0,46.9,38.0,97,92,84,30.11,29.83,7,1,12,0.31
2012-12-17,58.7,55.7,51.9,56.0,54.2,51.0,97,94,89,29.85,29.58,13,2,24,0.03
2012-12-18,61.3,52.9,36.9,55.0,45.4,33.0,97,78,51,29.84,29.58,16,4,21,0.01
2012-12-19,61.3,46.5,34.8,44.0,36.2,31.0,88,70,42,30.16,29.83,10,2,15,0.00
2012-12-20,59.6,42.5,28.6,58.0,38.3,27.0,96,85,67,30.20,29.39,22,4,30,0.39
2012-12-21,60.2,43.5,34.3,59.0,31.6,22.0,95,64,49,29.68,29.35,27,12,36,0.22
2012-12-22,48.5,39.1,31.3,26.0,23.0,19.0,64,54,37,30.04,29.68,23,8,28,0.00
2012-12-23,53.5,41.2,24.3,27.0,21.8,17.0,78,49,31,30.09,29.95,11,2,15,0.00
2012-12-24,45.8,39.6,31.7,44.0,34.3,24.0,95,83,45,30.07,29.88,7,1,12,0.08
2012-12-25,50.5,44.8,41.8,44.0,41.1,38.0,96,87,71,30.18,29.89,8,2,10,0.00
2012-12-26,43.7,39.7,36.3,43.0,37.7,35.0,96,92,81,30.17,29.42,15,6,24,1.08
2012-12-27,48.5,40.3,31.5,38.0,31.6,25.0,95,73,51,30.06,29.50,16,8,24,0.00
2012-12-28,46.0,34.2,24.6,33.0,27.9,22.0,92,79,54,30.16,30.03,8,0,9,0.00
2012-12-29,46.9,38.5,32.9,41.0,34.3,29.0,96,85,68,30.01,29.59,12,3,18,0.14
2012-12-30,45.0,36.1,25.3,29.0,23.2,21.0,83,61,38,30.34,29.86,16,4,24,0.00
2012-12-31,47.2,36.2,19.5,31.0,24.4,17.0,91,65,44,30.35,30.05,8,2,14,0.00